SARA

Satellite information

Favourite Embed

Satellite Type and Status

PAYLOADIN ORBIT

Key statistics

Satellite SARA at a glance.

Uptime

12349

Days in orbit

Revolutions

≈ 14.6

Per day

Orbit

SSO

Sun Synchronous Orbit

Inclination

98.1

Latest

Satellite identification and parameters

Extended collection of information and parameters for SARA.

Object identification

Identified? True

Debris? False

Object name: SARA

International designator: 1991-050E

Object number (NORAD): 21578

Object ID (CCSDS): 21578

Country: FRANCE (FR)

Current information (Y/N): Y

RCS size: MEDIUM

Orbital parameters

Period: 98.751 minutes

Inclination: 98.1486 deg

SMA: 7077.079 km

Apoapsis: 700.706 km

Periapsis: 697.182 km

RAAN: 180.2459 deg

Eccentricy: 0.000249

Argument of periapsis: 22.7567 deg

Mean anomaly: 91.841 deg

Mean motion: 14.58215411 rev/day

Mean motion (dot): 0.00001296 rev/day2

B* drag term: 0.0002905 1/REarth

Two-line elements (TLE)

Creation date: May 8, 2025, 3:01 a.m.

Reference frame: TEME

Reference center: EARTH

Epoch: May 7, 2025, 5:37 p.m. UTC

TLE line 0: 0 SARA

TLE line 1: 1 21578U 91050E 25127.73414856 .00001296 00000-0 29050-3 0 9990

TLE line 2: 2 21578 98.1486 180.2459 0002490 22.7567 91.8410 14.58215411787203

Live tracking on map

Real-time ground track for satellite SARA.

In-orbit conjunctions

A list of the most updated potential collisions computed for object SARA.

Target Orbit TCA Probability of collision Miss distance Type
DELTA 1 DEB SSO 2025-02-26 01:07:32 0.0001123905 627.0 (m) DEBRIS
FENGYUN 1C DEB SSO 2024-12-14 08:50:47 0.000618039 189.0 (m) DEBRIS
CZ-2C DEB SSO 2024-12-11 02:23:09 0.0003501429 518.0 (m) DEBRIS
IRIDIUM 33 DEB LEO 2024-08-11 01:48:26 0.0002923036 801.0 (m) DEBRIS

Associated space launch

ERS (European Remote Sensing Satellite) are a family of multi-disciplinary Earth Observation Satellites.

SARA was lifted into orbit during the mission ‘Ariane 40 | ERS-1’, on board a Ariane 40 space rocket.

The launch took place on July 17, 1991, 1:46 a.m. from Ariane Launch Area 2.

For more information about the launch, click the button.

Launch to space Ariane 40 | ERS-1
Ariane 40 | ERS-1

Agency: N/A

Status: Launch Successful

Launch date: July 17, 1991, 1:46 a.m. UTC

Rocket: Ariane 40

Launch pad: Ariane Launch Area 2

Location: Guiana Space Centre, French Guiana

...

Latest news about this satellite

There are no fresh news available about this satellite. Check back as we update our databases every day.


Newsletter sign-up

Weekly statistics, charts and insights to help you stay on top of the space industry.